Regional Weather Roundup
Issued by NWS

Home | Current Version | Previous Version | Graphics & Text | Print | Product List | Glossary On
Versions: 1 2 3 4 5 6 7 8 9 10 11 12 13 14 15 16 17 18 19 20 21 22 23 24 25 26 27
000
ASUS45 KBOU 180407
RWRCO

WEATHER ROUNDUP FOR COLORADO
NATIONAL WEATHER SERVICE DENVER/BOULDER CO
1000 PM MDT TUE OCT 17 2017

NOTE: "FAIR" INDICATES FEW OR NO CLOUDS BELOW 12000 FEET WITH NO
SIGNIFICANT WEATHER AND/OR OBSTRUCTIONS TO VISIBILITY.

COZ001>005-013-030-031-180500-
...NORTHWEST COLORADO...

CITY           SKY/WX    TMP DP  RH WIND       PRES   REMARKS
CRAIG          FAIR      37  20  50 CALM      30.23R
HAYDEN         FAIR      43  15  32 SE6       30.25S
MEEKER         FAIR      38  18  44 NE6       30.25R
RABBIT EARS PA FAIR      41   9  26 W7        30.43R
STEAMBOAT SPGS FAIR      41  17  38 CALM      30.26R
WALDEN         FAIR      32  12  43 SE9       30.30S WCI  24
$$

COZ006>008-011-180500-
...WEST CENTRAL VALLEYS...

CITY           SKY/WX    TMP DP  RH WIND       PRES   REMARKS
GRAND JUNCTION FAIR      50  15  24 E7        30.19R
MONTROSE       FAIR      43  16  33 S9        30.26S
EAGLE          FAIR      42  15  33 E6        30.29R
RIFLE          FAIR      44  18  35 CALM      30.23R
DELTA          FAIR      49  15  26 NE5       30.23R
NUCLA          FAIR      50   1  13 E12       30.28R
$$

COZ017>023-064>068-180500-
...SOUTHWEST COLORADO...

CITY           SKY/WX    TMP DP  RH WIND       PRES   REMARKS
DURANGO        FAIR      45  12  26 NE3       30.29R
CORTEZ         FAIR      40  11  30 E7        30.26R
PAGOSA SPRINGS FAIR      42  14  31 NE3       30.36S
TELLURIDE      NOT AVBL
WOLF CREEK PAS NOT AVBL
$$

COZ009-010-012-014-032>034-037-058>063-180500-
...CENTRAL COLORADO...

CITY           SKY/WX    TMP DP  RH WIND       PRES   REMARKS
ASPEN          FAIR      40  15  36 SW8       30.33S
BUENA VISTA    FAIR      46   9  22 SW7       30.32R
COPPER MTN     FAIR      43   0  16 W15       30.53S
BERTHOUD PASS  FAIR      36  27  69 W22G32    30.52S
COTTONWOOD PAS FAIR      55  -6   8 SW13G21   30.40F
GUNNISON       FAIR      36  14  40 CALM      30.35R
KREMMLING      FAIR      39  18  41 CALM      30.31R
LEADVILLE      FAIR      34   7  32 N5        30.41S WCI  30
MONARCH PASS   FAIR      37   0  20 W23       30.64S
SALIDA         NOT AVBL
SUNLIGHT       FAIR      37   1  22 SW10      30.51R
WILKERSON PASS FAIR      45  -2  14 W7        30.51S
$$

COZ069>075-180500-
...SAN LUIS VALLEY/SANGRE DE CRISTO MOUNTAINS...

CITY           SKY/WX    TMP DP  RH WIND       PRES   REMARKS
ALAMOSA        FAIR      37  16  42 SE8       30.30R
DEL NORTE      FAIR      44  16  31 W12       30.34R
LA VETA PASS   FAIR      45   5  19 SW23      30.53F
SAGUACHE       FAIR      39   7  26 NW7       30.33S
$$

COZ035-036-038>040-180500-
...NORTHERN COLORADO FRONT RANGE...

CITY           SKY/WX    TMP DP  RH WIND       PRES   REMARKS
DENVER INTL AP FAIR      53  18  25 SW12      30.10S
DMNS CITY PARK   N/A     52  20  28 SE7       30.11F
AURORA         PTCLDY    51  19  28 S8        30.12S
FRONT RANGE AP FAIR      48  25  40 S9        30.12S
ERIE MUNI ARPT FAIR      46  26  45 SW5       30.13F
BOULDER MUN AP FAIR      59  18  20 SW6       30.09S
CENTENNIAL     FAIR      51  20  29 S6        30.14S
BROOMFIELD     PTCLDY    55  19  24 CALM      30.13
FORT COLLINS   FAIR      50  32  50 CALM      30.07F HAZE
LONGMONT       FAIR      47  29  50 CALM      30.10S
$$

COZ041-046-047-076>085-087-088-180500-
...PIKES PEAK/PALMER DIVIDE AND SOUTHERN FOOTHILLS...

CITY           SKY/WX    TMP DP  RH WIND       PRES   REMARKS
COLO. SPRINGS  FAIR      47  21  35 NE5       30.20R
A. F. ACADEMY  FAIR      39  18  43 N13       30.21R
SCHRIEVER AFB  FAIR      46  22  37 MISG      30.20R
CHEYENNE MTN   FAIR      56  11  16 W3        30.18R
ELLICOTT       FAIR     N/A N/A N/A S7        30.17S
FALCON         FAIR      45  15  29 W6        30.24R
FORT CARSON    FAIR      47  20  34 NW8       30.17R
LIMON          FAIR      34  27  75 N7        30.13S WCI  28
MONUMENT HILL  FAIR      41  18  38 S9        30.23S
CANON CITY     CLEAR     52  19  28 W9        30.15R
WALSENBURG     NOT AVBL
TRINIDAD       FAIR      50  26  39 W12       30.15S
$$

COZ042>045-048>051-090-091-180500-
...NORTHEAST COLORADO...

CITY           SKY/WX    TMP DP  RH WIND       PRES   REMARKS
GREELEY ARPT   FAIR      43  33  68 NE3       30.06F
AKRON          FAIR      56  21  25 SW13      30.05S
BURLINGTON     FAIR      49  29  46 S12       30.07S
WRAY           FAIR      55  25  30 SW10      30.01F
YUMA           FAIR      48  27  43 SW12      30.03R
STERLING       FAIR      46  27  46 CALM      30.01R
HOLYOKE        FAIR      54  30  40 SW10      30.01R
FORT MORGAN    FAIR      51  13  22 W7        30.05S
$$

COZ086-089-092>099-180500-
...SOUTHEAST COLORADO...

CITY           SKY/WX    TMP DP  RH WIND       PRES   REMARKS
PUEBLO         FAIR      47  24  40 N3        30.11R
LA JUNTA       FAIR      58  29  33 SE3       30.08R
LAMAR          FAIR      44  31  60 S6        30.04S
SPRINGFIELD      N/A     40  35  83 W6        30.09S
$$




USA.gov is the U.S. government's official web portal to all federal, state and local government web resources and services.